Location: Unspecified
(0.0000°N, 0.0000°E)
Time: 08:20:14
(UTC+00:00)

Tiros 1 despin weight - Pass Details

Date: 05 October 2023
Orbit: 583 x 627 km, 48.2° (Epoch: 05 December)

Event Time Altitude Azimuth Distance (km) Brightness Sun altitude
Rises 13:59:42 0° 210° (SSW) 2,909 ? 56.9°
Reaches altitude 10° 14:02:05 10° 205° (SSW) 2,002 ? 56.3°
Maximum altitude 14:06:34 52° 129° (SE) 782 ? 55.2°
Drops below altitude 10° 14:11:02 10° 53° (NE) 1,991 ? 54.1°
Sets 14:13:23 0° 48° (NE) 2,891 ? 53.5°
